GW7083 Weather Reports


time (UTC)temp
F
wind
direction
speed
knots
gust
knots
rain 1hr
in
rain 24hr
in
rain mn
in
humidity
%
barometer
mb
20260503200553 63 265 3.5 6.1 0.00 0.00 0.00 31 1017.7
20260503200050 63 6 3.5 6.1 0.00 0.00 0.00 31 1017.7
20260503195547 62 166 1.7 2.6 0.00 0.00 0.00 33 1017.7
20260503195044 62 244 2.6 6.1 0.00 0.00 0.00 32 1017.8
20260503194541 62 300 2.6 5.2 0.00 0.00 0.00 31 1017.7
20260503194041 63 301 2.6 7.0 0.00 0.00 0.00 31 1017.9
20260503193538 61 30 2.6 7.0 0.00 0.00 0.00 33 1018.0
20260503193033 62 282 3.5 5.2 0.00 0.00 0.00 31 1018.2
20260503192530 64 246 3.5 5.2 0.00 0.00 0.00 29 1018.0
20260503192026 62 166 6.1 7.0 0.00 0.00 0.00 30 1018.0
20260503191522 62 314 2.6 5.2 0.00 0.00 0.00 31 1018.1
20260503191019 64 269 2.6 6.1 0.00 0.00 0.00 29 1018.1
20260503190516 63 220 1.7 4.3 0.00 0.00 0.00 30 1018.3
20260503190013 62 231 2.6 5.2 0.00 0.00 0.00 32 1018.3
20260503185510 62 154 3.5 8.7 0.00 0.00 0.00 30 1018.3
20260503185009 62 313 3.5 5.2 0.00 0.00 0.00 28 1018.5
20260503184506 63 203 1.7 2.6 0.00 0.00 0.00 28 1018.4
20260503184002 62 298 2.6 7.0 0.00 0.00 0.00 27 1018.6
20260503183459 62 141 0.9 1.7 0.00 0.00 0.00 28 1018.8
20260503182956 62 254 1.7 5.2 0.00 0.00 0.00 31 1018.3
20260503182455 60 104 0.9 4.3 0.00 0.00 0.00 28 1018.4
20260503181952 62 135 2.6 5.2 0.00 0.00 0.00 25 1019.0
20260503181449 60 178 0.0 6.1 0.00 0.00 0.00 26 1018.8
20260503180945 62 152 0.9 1.7 0.00 0.00 0.00 26 1018.7
20260503180443 60 123 2.6 4.3 0.00 0.00 0.00 26 1019.1
20260503175939 59 237 3.5 5.2 0.00 0.00 0.00 29 1019.0
20260503175438 59 106 2.6 6.1 0.00 0.00 0.00 36 1019.1
20260503174939 59 248 0.9 7.8 0.00 0.00 0.00 32 1019.1
20260503174437 60 166 2.6 2.6 0.00 0.00 0.00 32 1019.1
20260503173932 59 194 2.6 4.3 0.00 0.00 0.00 30 1019.2
20260503173428 60 113 0.9 7.0 0.00 0.00 0.00 33 1019.2
20260503172925 59 211 1.7 5.2 0.00 0.00 0.00 29 1019.3
20260503172423 57 284 6.1 7.8 0.00 0.00 0.00 31 1019.2
20260503171918 57 213 2.6 4.3 0.00 0.00 0.00 32 1019.5
20260503171415 57 180 1.7 6.1 0.00 0.00 0.00 31 1019.4
20260503170913 58 157 2.6 4.3 0.00 0.00 0.00 35 1019.7
20260503170409 58 299 3.5 7.0 0.00 0.00 0.00 34 1019.5
20260503150801 52 199 3.5 5.2 0.00 0.00 0.00 44 1020.5
20260503150257 51 157 2.6 6.1 0.00 0.00 0.00 47 1020.1
20260503140222 49 176 0.9 4.3 0.00 0.00 0.00 55 1020.0
20260503131151 45 112 2.6 5.2 0.00 0.00 0.00 65 1020.0
20260503130649 44 172 1.7 4.3 0.00 0.00 0.00 64 1019.9
20260503130146 44 167 1.7 2.6 0.00 0.00 0.00 67 1019.9
20260503120112 36 160 0.0 0.0 0.00 0.00 0.00 90 1019.6
20260503110539 34 147 0.9 0.9 0.00 0.00 0.00 92 1019.1
20260503090426 37 156 0.0 0.0 0.00 0.00 0.00 83 1017.8
20260503081352 41 160 0.0 0.9 0.00 0.00 0.00 75 1017.3
20260503080849 41 141 0.9 1.7 0.00 0.00 0.00 73 1017.2
20260503080346 41 123 1.7 1.7 0.00 0.00 0.00 77 1017.0
20260503072823 36 157 0.9 1.7 0.00 0.00 0.00 89 1016.8
20260503072320 36 182 0.0 1.7 0.00 0.00 0.00 88 1016.8
20260503071815 36 175 0.0 0.9 0.00 0.00 0.00 89 1016.8
20260503071313 36 165 0.0 1.7 0.00 0.00 0.00 89 1016.8
20260503070809 36 178 0.0 0.0 0.00 0.00 0.00 89 1016.7
20260503070307 36 182 0.0 0.9 0.00 0.00 0.00 89 1016.8
20260503060232 36 124 1.7 1.7 0.00 0.00 0.00 89 1016.6
20260503054719 36 166 0.0 0.9 0.00 0.00 0.00 88 1016.9
20260503054216 36 158 0.9 0.9 0.00 0.00 0.00 88 1016.8
20260503053714 37 203 0.9 0.9 0.00 0.00 0.00 87 1016.8
20260503053213 37 205 0.9 1.7 0.00 0.00 0.00 87 1016.7
20260503052709 37 170 0.0 0.9 0.00 0.00 0.00 87 1016.8
20260503052206 37 166 0.0 0.9 0.00 0.00 0.00 86 1017.0
20260503051701 37 147 0.0 0.9 0.00 0.00 0.00 86 1016.7
20260503051159 37 149 0.9 1.7 0.00 0.00 0.00 86 1016.9
20260503050655 38 128 0.9 1.7 0.00 0.00 0.00 85 1016.6
20260503050151 38 168 0.0 1.7 0.00 0.00 0.00 85 1016.9
20260503045649 38 234 0.9 0.9 0.00 0.00 0.00 84 1016.7
20260503045146 38 151 0.0 0.9 0.00 0.00 0.00 84 1016.9
20260503044643 38 145 0.9 0.9 0.00 0.00 0.00 83 1016.7
20260503044140 38 170 0.0 0.9 0.00 0.00 0.00 83 1016.7
20260503043637 39 103 0.9 1.7 0.00 0.00 0.00 83 1016.7
20260503043134 39 132 0.9 0.9 0.00 0.00 0.00 82 1016.8
20260503042630 39 164 0.0 0.0 0.00 0.00 0.00 81 1016.5
20260503042126 39 161 0.0 1.7 0.00 0.00 0.00 80 1016.6
20260503041623 39 185 0.0 0.9 0.00 0.00 0.00 80 1016.7
20260503041121 40 148 0.9 1.7 0.00 0.00 0.00 80 1016.6
20260503040618 40 231 0.9 1.7 0.00 0.00 0.00 78 1016.4
20260503040115 40 155 0.0 0.9 0.00 0.00 0.00 77 1016.0
20260503035612 41 182 0.9 0.9 0.00 0.00 0.00 77 1015.9
20260503035110 41 189 0.0 1.7 0.00 0.00 0.00 77 1015.9
20260503034607 41 146 1.7 1.7 0.00 0.00 0.00 76 1015.9
20260503034104 41 168 0.0 1.7 0.00 0.00 0.00 76 1015.9
20260503033601 41 50 0.9 1.7 0.00 0.00 0.00 75 1015.8
20260503033059 42 178 0.0 0.9 0.00 0.00 0.00 74 1015.7
20260503032557 43 113 0.9 0.9 0.00 0.00 0.00 72 1016.0
20260503032055 44 159 0.0 0.9 0.00 0.00 0.00 68 1015.7
20260503031552 44 333 2.6 4.3 0.00 0.00 0.00 68 1015.9
20260503031049 44 203 0.9 1.7 0.00 0.00 0.00 68 1015.6
20260503030545 45 282 1.7 1.7 0.00 0.00 0.00 64 1015.7
20260503030042 45 192 0.9 4.3 0.00 0.00 0.00 61 1015.9
20260503025539 45 184 1.7 6.1 0.00 0.00 0.00 56 1015.8
20260503025037 41 195 0.9 1.7 0.00 0.00 0.00 75 1015.9
20260503024533 42 143 0.0 0.9 0.00 0.00 0.00 75 1015.9
20260503024030 42 132 0.9 1.7 0.00 0.00 0.00 75 1015.8
20260503023527 42 159 0.0 0.9 0.00 0.00 0.00 74 1015.9
20260503023025 42 135 0.9 1.7 0.00 0.00 0.00 74 1015.9
20260503022520 43 167 0.0 1.7 0.00 0.00 0.00 71 1015.7
20260503022015 43 168 0.9 1.7 0.00 0.00 0.00 71 1015.6
20260503021512 43 169 0.0 0.9 0.00 0.00 0.00 70 1015.5
20260503021009 44 173 0.0 0.9 0.00 0.00 0.00 68 1015.5
20260503020506 44 168 0.0 0.0 0.00 0.00 0.00 67 1015.5
20260503020003 44 138 0.9 2.6 0.00 0.00 0.00 65 1015.5
20260503015459 45 160 0.0 0.9 0.00 0.00 0.00 65 1015.3
20260503014956 46 133 0.9 0.9 0.00 0.00 0.00 63 1015.2
20260503014453 47 166 0.0 0.0 0.00 0.00 0.00 60 1015.4
20260503013951 47 150 0.9 0.9 0.00 0.00 0.00 54 1014.8
20260503013448 48 239 0.9 0.9 0.00 0.00 0.00 55 1015.0
20260503012945 49 174 0.0 2.6 0.00 0.00 0.00 53 1015.2
20260503012443 49 126 0.9 1.7 0.00 0.00 0.00 52 1015.3
20260503011938 49 180 0.9 2.6 0.00 0.00 0.00 49 1014.8
20260503011435 49 153 1.7 5.2 0.00 0.00 0.00 48 1014.8
20260503010933 50 114 0.9 1.7 0.00 0.00 0.00 49 1014.6
20260503010429 49 194 1.7 2.6 0.00 0.00 0.00 50 1014.7
20260503005927 50 101 1.7 1.7 0.00 0.00 0.00 48 1014.7
20260503005424 50 145 1.7 1.7 0.00 0.00 0.00 48 1014.5
20260503004920 51 176 0.9 1.7 0.00 0.00 0.00 46 1014.4
20260503004417 51 180 0.0 5.2 0.00 0.00 0.00 47 1014.4
20260503003915 51 111 1.7 1.7 0.00 0.00 0.00 45 1014.4
20260503003412 51 145 2.6 4.3 0.00 0.00 0.00 44 1014.2
20260503002909 51 229 0.9 2.6 0.00 0.00 0.00 44 1014.1
20260503002406 51 214 2.6 6.1 0.00 0.00 0.00 45 1014.1
20260503001902 51 192 3.5 5.2 0.00 0.00 0.00 43 1014.0
20260503001358 51 101 4.3 7.0 0.00 0.00 0.00 44 1014.1
20260503000856 52 194 2.6 5.2 0.00 0.00 0.00 45 1013.9
20260503000353 52 145 2.6 7.8 0.00 0.00 0.00 42 1013.8
20260502235850 52 255 5.2 7.8 0.00 0.00 0.00 43 1014.0
20260502235347 52 196 5.2 7.0 0.00 0.00 0.00 43 1013.4
20260502234844 52 185 2.6 5.2 0.00 0.00 0.00 45 1013.7
20260502234341 53 156 0.0 1.7 0.00 0.00 0.00 44 1013.2
20260502233838 53 185 0.9 2.6 0.00 0.00 0.00 40 1013.3
20260502233334 54 105 1.7 7.8 0.00 0.00 0.00 40 1013.4
20260502232831 55 195 6.1 7.8 0.00 0.00 0.00 39 1013.3
20260502232327 55 129 2.6 5.2 0.00 0.00 0.00 37 1013.1
20260502231824 55 210 0.9 6.1 0.00 0.00 0.00 36 1013.3
20260502231322 56 204 3.5 7.0 0.00 0.00 0.00 35 1013.6
20260502230820 57 162 2.6 4.3 0.00 0.00 0.00 35 1013.1
20260502230318 57 230 0.0 1.7 0.00 0.00 0.00 36 1013.2
20260502225814 57 268 2.6 5.2 0.00 0.00 0.00 35 1013.1
20260502225311 57 202 0.9 1.7 0.00 0.00 0.00 35 1013.2
20260502224807 57 208 0.9 4.3 0.00 0.00 0.00 36 1013.0
20260502224304 57 160 3.5 6.1 0.00 0.00 0.00 36 1013.3
20260502223802 57 188 1.7 5.2 0.00 0.00 0.00 37 1013.3
20260502223300 58 186 1.7 2.6 0.00 0.00 0.00 35 1013.0
20260502222757 58 190 4.3 6.1 0.00 0.00 0.00 36 1012.7
20260502222254 58 229 2.6 4.3 0.00 0.00 0.00 36 1013.1
20260502221750 58 87 1.7 4.3 0.00 0.00 0.00 34 1013.1
20260502221246 58 248 3.5 5.2 0.00 0.00 0.00 36 1013.1
20260502220743 58 200 3.5 6.1 0.00 0.00 0.00 35 1013.0
20260502220239 59 231 5.2 8.7 0.00 0.00 0.00 33 1012.9
20260502215735 59 194 2.6 5.2 0.00 0.00 0.00 36 1013.0
20260502215233 60 163 4.3 7.0 0.00 0.00 0.00 33 1012.8
20260502214730 59 225 0.0 1.7 0.00 0.00 0.00 36 1012.6
20260502214227 59 228 1.7 5.2 0.00 0.00 0.00 39 1012.8
20260502213724 59 240 2.6 2.6 0.00 0.00 0.00 35 1012.5
20260502213222 59 143 6.1 7.8 0.00 0.00 0.00 34 1012.1
20260502212720 59 89 4.3 11.3 0.00 0.00 0.00 33 1012.1
20260502212218 58 210 0.9 4.3 0.00 0.00 0.00 32 1012.4
20260502211714 60 135 6.1 7.0 0.00 0.00 0.00 35 1012.3
20260502211211 59 240 0.9 5.2 0.00 0.00 0.00 32 1012.1
20260502210708 59 83 5.2 6.1 0.00 0.00 0.00 32 1012.1
20260502210205 58 197 2.6 9.6 0.00 0.00 0.00 37 1012.3
20260502205702 59 152 2.6 4.3 0.00 0.00 0.00 34 1011.8
20260502205158 59 134 7.8 11.3 0.00 0.00 0.00 35 1012.3
20260502204655 59 217 4.3 7.8 0.00 0.00 0.00 33 1012.3
20260502204153 58 112 3.5 11.3 0.00 0.00 0.00 35 1012.0
20260502203650 57 137 1.7 7.0 0.00 0.00 0.00 35 1012.0
20260502203149 56 218 4.3 6.1 0.00 0.00 0.00 34 1012.1
20260502202648 56 218 3.5 4.3 0.00 0.00 0.00 35 1012.5
20260502202147 56 198 5.2 6.1 0.00 0.00 0.00 38 1012.0
20260502201643 59 137 4.3 8.7 0.00 0.00 0.00 34 1012.0
20260502201140 60 276 2.6 6.1 0.00 0.00 0.00 32 1012.1